Regional Weather Roundup
Issued by NWS

Home | Current Version | Previous Version | Graphics & Text | Print | Product List | Glossary On
Versions: 1 2 3 4 5 6 7 8 9 10 11 12 13 14 15 16 17 18 19 20 21 22 23 24 25 26 27
000
ASUS45 KBOI 301310
RWRID

IDAHO REGIONAL WEATHER ROUNDUP
NATIONAL WEATHER SERVICE BOISE ID
700 AM MDT FRI SEP 30 2016

NOTE: "FAIR" INDICATES FEW OR NO CLOUDS BELOW 12000 FEET
WITH NO SIGNIFICANT WEATHER AND/OR OBSTRUCTIONS TO VISIBILITY

IDZ012-014-301400-
SOUTHWEST IDAHO


CITY           SKY/WX    TMP DP  RH WIND       PRES   REMARKS
BOISE          CLOUDY    68  44  42 SE7       30.04S
CALDWELL       CLOUDY    66  48  52 SE10      30.02R
MOUNTAIN HOME  CLOUDY    65  49  57 E17       30.04F
$$

IDZ016-017-301400-
SOUTHCENTRAL IDAHO


CITY           SKY/WX    TMP DP  RH WIND       PRES   REMARKS
BURLEY         MOCLDY    50  47  89 CALM      30.14R
JEROME         PTCLDY    56  49  77 NE14      30.12F
TWIN FALLS     PTCLDY    56  47  71 SE3       30.13S
$$

IDZ019>023-301400-
SOUTHEAST IDAHO


CITY           SKY/WX    TMP DP  RH WIND       PRES   REMARKS
IDAHO FALLS    CLEAR     44  42  93 NW3       30.21R
POCATELLO      PTCLDY    47  45  93 NE3       30.19R
REXBURG        CLEAR     45  44  97 NE5       30.22R
$$

IDZ006-010-011-018-031-032-301400-
CENTRAL IDAHO MOUNTAINS


CITY           SKY/WX    TMP DP  RH WIND       PRES   REMARKS
MCCALL         PTCLDY    53  39  59 CALM      30.11R
HAILEY         PTCLDY    54  46  76 W7        30.22F
STANLEY          N/A     41  40  96 CALM      30.26R
SALMON         MOCLDY    46  45  93 NE3       30.16F
CHALLIS        MOCLDY    47  43  86 VRB5      30.21S
$$

IDZ002-004-006-007-026-301400-
NORTHERN IDAHO


CITY           SKY/WX    TMP DP  RH WIND       PRES   REMARKS
LEWISTON       PTCLDY    58  50  75 CALM      29.96R
LOWELL           N/A     53  51  93 NW5       29.98S
COEUR D`ALENE  MOCLDY    54  53  97 N5        29.99F
MULLAN PASS    PTCLDY    52  39  61 E3        30.11S
$$




USA.gov is the U.S. government's official web portal to all federal, state and local government web resources and services.